WMT763 LZIB-LROP

Flight info

Callsign WMT763
Flight time 1h 9m
Altitude 35000
Route NIT M748 ERGOM DCT DEGET DCT EKNAB DCT LAMIT DCT TOSVI
Aircraft A321/M-SDE1E2E3FGIJ1J4RWXY/LB1

Departure

Time 2026-04-30 11:04
Airport M. R. Štefánik Airport (LZIB)

Arrival

Time 2026-04-30 12:13
Airport Bucharest Henri Coandă International Airport (LROP)
Time Latitude Longitude Altitude Speed Heading
2026-04-30 10:42 48.16845 17.19974 439 ft 0 kts 313°
2026-04-30 10:55 48.16836 17.19988 426 ft 3 kts 319°
2026-04-30 10:55 48.16820 17.20006 429 ft 3 kts 334°
2026-04-30 10:55 48.16802 17.20015 427 ft 3 kts 358°
2026-04-30 10:56 48.16785 17.20012 427 ft 3 kts 33°
2026-04-30 10:56 48.16779 17.20006 428 ft 1 kts 43°
2026-04-30 10:59 48.16780 17.20008 427 ft 3 kts 43°
2026-04-30 10:59 48.16815 17.20056 426 ft 9 kts 43°
2026-04-30 10:59 48.16850 17.20140 425 ft 8 kts 108°
2026-04-30 10:59 48.16807 17.20210 426 ft 10 kts 135°
2026-04-30 11:00 48.16757 17.20284 437 ft 11 kts 135°
2026-04-30 11:00 48.16691 17.20343 439 ft 11 kts 192°
2026-04-30 11:00 48.16629 17.20278 434 ft 11 kts 219°
2026-04-30 11:00 48.16570 17.20198 436 ft 13 kts 223°
2026-04-30 11:01 48.16490 17.20094 447 ft 16 kts 219°
2026-04-30 11:01 48.16403 17.19989 450 ft 17 kts 220°
2026-04-30 11:01 48.16318 17.19874 452 ft 16 kts 222°
2026-04-30 11:01 48.16231 17.19770 455 ft 14 kts 193°
2026-04-30 11:02 48.16158 17.19836 456 ft 12 kts 134°
2026-04-30 11:02 48.16104 17.19933 456 ft 9 kts 130°
2026-04-30 11:02 48.16096 17.19970 456 ft 2 kts 54°
2026-04-30 11:02 48.16124 17.19998 455 ft 8 kts 32°
2026-04-30 11:03 48.16147 17.20031 453 ft 8 kts 44°
2026-04-30 11:03 48.16369 17.20351 446 ft 85 kts 44°
2026-04-30 11:03 48.16967 17.21218 479 ft 145 kts 44°
2026-04-30 11:04 48.18487 17.23384 2065 ft 159 kts 42°
2026-04-30 11:04 48.19337 17.24605 2484 ft 180 kts 43°
2026-04-30 11:04 48.20290 17.25981 2798 ft 201 kts 43°
2026-04-30 11:04 48.21334 17.27482 3306 ft 212 kts 43°
2026-04-30 11:05 48.22280 17.29196 3889 ft 217 kts 61°
2026-04-30 11:05 48.22675 17.31512 4102 ft 245 kts 80°
2026-04-30 11:05 48.22909 17.34125 4817 ft 256 kts 81°
2026-04-30 11:05 48.23135 17.36793 5742 ft 260 kts 81°
2026-04-30 11:06 48.23364 17.39508 6704 ft 265 kts 80°
2026-04-30 11:06 48.23607 17.42265 7544 ft 269 kts 79°
2026-04-30 11:06 48.23858 17.45087 8380 ft 276 kts 79°
2026-04-30 11:06 48.24114 17.47968 9169 ft 282 kts 79°
2026-04-30 11:07 48.24371 17.50921 9956 ft 289 kts 79°
2026-04-30 11:07 48.24637 17.53951 10627 ft 299 kts 79°
2026-04-30 11:07 48.24927 17.57169 10931 ft 323 kts 79°
2026-04-30 11:07 48.25241 17.60600 11343 ft 338 kts 79°
2026-04-30 11:08 48.25557 17.64132 12041 ft 344 kts 79°
2026-04-30 11:08 48.25871 17.67722 12796 ft 349 kts 79°
2026-04-30 11:08 48.26186 17.71354 13551 ft 354 kts 79°
2026-04-30 11:08 48.26501 17.75031 14292 ft 358 kts 79°
2026-04-30 11:09 48.26819 17.78763 14965 ft 362 kts 79°
2026-04-30 11:09 48.27142 17.82538 15624 ft 366 kts 79°
2026-04-30 11:09 48.27470 17.86352 16308 ft 371 kts 79°
2026-04-30 11:09 48.27802 17.90211 17013 ft 375 kts 79°
2026-04-30 11:10 48.28136 17.94106 17700 ft 379 kts 79°
2026-04-30 11:10 48.28428 17.98067 18370 ft 385 kts 84°
2026-04-30 11:10 48.28252 18.02122 18963 ft 395 kts 97°
2026-04-30 11:10 48.27472 18.06113 19530 ft 403 kts 111°
2026-04-30 11:11 48.26102 18.09809 20092 ft 409 kts 125°
2026-04-30 11:11 48.24252 18.13085 20662 ft 414 kts 132°
2026-04-30 11:11 48.22311 18.16310 21229 ft 418 kts 132°
2026-04-30 11:11 48.20352 18.19562 21807 ft 422 kts 132°
2026-04-30 11:12 48.18374 18.22852 22378 ft 427 kts 132°
2026-04-30 11:12 48.16380 18.26174 22944 ft 431 kts 132°
2026-04-30 11:12 48.14363 18.29531 23503 ft 435 kts 132°
2026-04-30 11:12 48.12328 18.32909 24047 ft 439 kts 133°
2026-04-30 11:13 48.10266 18.36317 24491 ft 443 kts 133°
2026-04-30 11:13 48.08187 18.39744 24963 ft 447 kts 133°
2026-04-30 11:13 48.06094 18.43193 25393 ft 450 kts 133°
2026-04-30 11:13 48.03980 18.46670 25840 ft 453 kts 133°
2026-04-30 11:14 48.01853 18.50160 26289 ft 456 kts 133°
2026-04-30 11:14 47.99716 18.53670 26725 ft 459 kts 133°
2026-04-30 11:14 47.97446 18.57050 27132 ft 461 kts 141°
2026-04-30 11:14 47.94875 18.59914 27550 ft 462 kts 149°
2026-04-30 11:15 47.92158 18.62509 27966 ft 465 kts 150°
2026-04-30 11:15 47.89427 18.65110 28367 ft 468 kts 150°
2026-04-30 11:15 47.86674 18.67731 28775 ft 471 kts 150°
2026-04-30 11:15 47.83906 18.70386 29193 ft 474 kts 148°
2026-04-30 11:16 47.81301 18.73429 29573 ft 480 kts 139°
2026-04-30 11:16 47.78998 18.77049 29964 ft 484 kts 129°
2026-04-30 11:16 47.76974 18.81073 30338 ft 487 kts 127°
2026-04-30 11:16 47.74964 18.85140 30686 ft 490 kts 127°
2026-04-30 11:17 47.72935 18.89224 30999 ft 493 kts 127°
2026-04-30 11:17 47.70886 18.93337 31305 ft 495 kts 127°
2026-04-30 11:17 47.68823 18.97464 31613 ft 498 kts 127°
2026-04-30 11:17 47.66750 19.01600 31940 ft 500 kts 127°
2026-04-30 11:18 47.64671 19.05742 32305 ft 501 kts 127°
2026-04-30 11:18 47.60515 19.14031 33206 ft 500 kts 127°
2026-04-30 11:18 47.58467 19.18110 33663 ft 499 kts 127°
2026-04-30 11:19 47.56370 19.22283 34118 ft 498 kts 127°
2026-04-30 11:19 47.54304 19.26388 34522 ft 497 kts 127°
2026-04-30 11:19 47.52262 19.30436 34864 ft 497 kts 127°
2026-04-30 11:19 47.50187 19.34534 35217 ft 496 kts 127°
2026-04-30 11:20 47.48114 19.38613 35352 ft 496 kts 127°
2026-04-30 11:20 47.46056 19.42655 35385 ft 488 kts 127°
2026-04-30 11:20 47.42003 19.50614 35380 ft 483 kts 127°
2026-04-30 11:21 47.37954 19.58544 35379 ft 483 kts 127°
2026-04-30 11:21 47.33906 19.66449 35373 ft 483 kts 127°
2026-04-30 11:22 47.29853 19.74365 35369 ft 483 kts 127°
2026-04-30 11:22 47.25797 19.82247 35371 ft 483 kts 127°
2026-04-30 11:23 47.21728 19.90116 35370 ft 483 kts 127°
2026-04-30 11:24 47.15648 20.01870 35372 ft 483 kts 127°
2026-04-30 11:24 47.11568 20.09712 35373 ft 483 kts 127°
2026-04-30 11:25 47.05450 20.21454 35373 ft 483 kts 127°
2026-04-30 11:26 46.97271 20.37054 35373 ft 482 kts 127°
2026-04-30 11:26 46.93181 20.44823 35367 ft 482 kts 127°
2026-04-30 11:27 46.89080 20.52591 35359 ft 482 kts 127°
2026-04-30 11:27 46.85675 20.59031 35353 ft 482 kts 127°
2026-04-30 11:28 46.79515 20.70626 35346 ft 481 kts 128°
2026-04-30 11:29 46.75407 20.78330 35385 ft 479 kts 126°
2026-04-30 11:29 46.73385 20.82115 35314 ft 467 kts 126°
2026-04-30 11:29 46.69443 20.89495 35318 ft 460 kts 126°
2026-04-30 11:30 46.63539 21.00497 35318 ft 460 kts 126°
2026-04-30 11:31 46.59593 21.07817 35309 ft 460 kts 126°
2026-04-30 11:31 46.55641 21.15129 35311 ft 460 kts 126°
2026-04-30 11:32 46.51676 21.22438 35310 ft 461 kts 126°
2026-04-30 11:32 46.47672 21.29699 35309 ft 461 kts 128°
2026-04-30 11:33 46.41268 21.40157 35306 ft 462 kts 131°
2026-04-30 11:33 46.36979 21.47016 35303 ft 463 kts 130°
2026-04-30 11:34 46.32698 21.53972 35302 ft 463 kts 130°
2026-04-30 11:34 46.28436 21.60958 35298 ft 463 kts 130°
2026-04-30 11:35 46.24165 21.67929 35295 ft 463 kts 130°
2026-04-30 11:35 46.19882 21.74884 35290 ft 463 kts 131°
2026-04-30 11:36 46.15589 21.81823 35286 ft 464 kts 131°
2026-04-30 11:36 46.11284 21.88750 35290 ft 464 kts 131°
2026-04-30 11:37 46.06975 21.95672 35287 ft 464 kts 131°
2026-04-30 11:37 46.02659 22.02591 35290 ft 464 kts 132°
2026-04-30 11:38 45.98345 22.09497 35289 ft 464 kts 132°
2026-04-30 11:38 45.94020 22.16408 35287 ft 465 kts 132°
2026-04-30 11:39 45.89695 22.23303 35282 ft 465 kts 132°
2026-04-30 11:39 45.85361 22.30198 35281 ft 465 kts 133°
2026-04-30 11:40 45.83331 22.33805 35279 ft 465 kts 121°
2026-04-30 11:40 45.81775 22.37868 35279 ft 465 kts 117°
2026-04-30 11:40 45.78779 22.46098 35273 ft 466 kts 117°
2026-04-30 11:41 45.75790 22.54352 35271 ft 467 kts 117°
2026-04-30 11:41 45.72783 22.62607 35264 ft 467 kts 118°
2026-04-30 11:42 45.69772 22.70795 35258 ft 468 kts 118°
2026-04-30 11:42 45.66806 22.79098 35255 ft 469 kts 117°
2026-04-30 11:43 45.63911 22.87460 35257 ft 469 kts 117°
2026-04-30 11:43 45.61003 22.95825 35253 ft 470 kts 117°
2026-04-30 11:44 45.58065 23.04175 35251 ft 471 kts 118°
2026-04-30 11:44 45.55105 23.12524 35251 ft 471 kts 118°
2026-04-30 11:45 45.52162 23.20821 35253 ft 472 kts 118°
2026-04-30 11:45 45.49188 23.29180 35253 ft 472 kts 118°
2026-04-30 11:46 45.46204 23.37551 35254 ft 473 kts 118°
2026-04-30 11:46 45.43203 23.45927 35269 ft 479 kts 118°
2026-04-30 11:47 45.41691 23.50129 35008 ft 475 kts 118°
2026-04-30 11:47 45.40192 23.54305 34574 ft 472 kts 118°
2026-04-30 11:47 45.38703 23.58447 34158 ft 469 kts 119°
2026-04-30 11:47 45.37222 23.62560 33667 ft 465 kts 119°
2026-04-30 11:48 45.35756 23.66635 33206 ft 461 kts 120°
2026-04-30 11:48 45.34296 23.70685 32742 ft 458 kts 120°
2026-04-30 11:48 45.32845 23.74692 32266 ft 454 kts 120°
2026-04-30 11:48 45.31420 23.78617 31819 ft 451 kts 121°
2026-04-30 11:49 45.29984 23.82563 31369 ft 448 kts 121°
2026-04-30 11:49 45.28559 23.86483 30927 ft 446 kts 121°
2026-04-30 11:49 45.27138 23.90389 30468 ft 443 kts 122°
2026-04-30 11:49 45.25726 23.94265 29990 ft 441 kts 122°
2026-04-30 11:50 45.24322 23.98106 29502 ft 438 kts 122°
2026-04-30 11:50 45.22923 24.01925 29058 ft 434 kts 123°
2026-04-30 11:50 45.21537 24.05713 28628 ft 432 kts 123°
2026-04-30 11:50 45.20159 24.09478 28209 ft 429 kts 123°
2026-04-30 11:51 45.18788 24.13220 27798 ft 426 kts 123°
2026-04-30 11:51 45.17425 24.16930 27386 ft 423 kts 124°
2026-04-30 11:51 45.16069 24.20619 26991 ft 421 kts 124°
2026-04-30 11:51 45.14720 24.24286 26581 ft 418 kts 124°
2026-04-30 11:52 45.13375 24.27931 26208 ft 416 kts 124°
2026-04-30 11:52 45.12039 24.31546 25843 ft 413 kts 124°
2026-04-30 11:52 45.10709 24.35141 25482 ft 411 kts 124°
2026-04-30 11:52 45.09385 24.38712 25112 ft 409 kts 125°
2026-04-30 11:53 45.08067 24.42259 24745 ft 406 kts 125°
2026-04-30 11:53 45.06754 24.45789 24358 ft 404 kts 125°
2026-04-30 11:53 45.05451 24.49294 23903 ft 398 kts 125°
2026-04-30 11:53 45.04170 24.52731 22929 ft 393 kts 125°
2026-04-30 11:54 45.02920 24.56100 21820 ft 382 kts 124°
2026-04-30 11:54 45.01711 24.59386 20840 ft 372 kts 122°
2026-04-30 11:54 45.00514 24.62606 20389 ft 367 kts 123°
2026-04-30 11:54 44.99325 24.65770 20066 ft 361 kts 123°
2026-04-30 11:55 44.98163 24.68838 19704 ft 356 kts 123°
2026-04-30 11:55 44.97010 24.71885 19029 ft 348 kts 122°
2026-04-30 11:55 44.95885 24.74863 18188 ft 340 kts 121°
2026-04-30 11:55 44.94777 24.77805 17613 ft 338 kts 121°
2026-04-30 11:56 44.93681 24.80721 17205 ft 334 kts 121°
2026-04-30 11:56 44.92597 24.83602 16789 ft 331 kts 121°
2026-04-30 11:56 44.91516 24.86461 16381 ft 329 kts 120°
2026-04-30 11:56 44.90441 24.89296 15973 ft 326 kts 120°
2026-04-30 11:57 44.89375 24.92105 15576 ft 323 kts 120°
2026-04-30 11:57 44.88318 24.94894 15199 ft 321 kts 120°
2026-04-30 11:57 44.87270 24.97658 14851 ft 319 kts 120°
2026-04-30 11:57 44.86233 25.00404 14503 ft 316 kts 120°
2026-04-30 11:58 44.85204 25.03137 14171 ft 313 kts 120°
2026-04-30 11:58 44.84190 25.05831 13819 ft 309 kts 120°
2026-04-30 11:58 44.83180 25.08494 13421 ft 307 kts 120°
2026-04-30 11:58 44.82180 25.11123 12883 ft 300 kts 120°
2026-04-30 11:59 44.81202 25.13685 12244 ft 301 kts 119°
2026-04-30 11:59 44.80216 25.16264 11871 ft 298 kts 119°
2026-04-30 11:59 44.79235 25.18826 11488 ft 296 kts 119°
2026-04-30 11:59 44.78265 25.21363 11281 ft 290 kts 119°
2026-04-30 12:00 44.77317 25.23843 11174 ft 286 kts 118°
2026-04-30 12:00 44.76377 25.26300 10810 ft 284 kts 118°
2026-04-30 12:00 44.75442 25.28743 10430 ft 283 kts 118°
2026-04-30 12:00 44.74494 25.31208 10052 ft 282 kts 118°
2026-04-30 12:01 44.73563 25.33621 9666 ft 280 kts 117°
2026-04-30 12:01 44.72640 25.36018 9309 ft 277 kts 117°
2026-04-30 12:01 44.71724 25.38396 8961 ft 275 kts 117°
2026-04-30 12:01 44.70817 25.40752 8606 ft 273 kts 116°
2026-04-30 12:02 44.69921 25.43088 8275 ft 270 kts 116°
2026-04-30 12:02 44.69044 25.45369 7935 ft 268 kts 116°
2026-04-30 12:02 44.68165 25.47650 7443 ft 262 kts 115°
2026-04-30 12:02 44.67299 25.49888 6714 ft 259 kts 115°
2026-04-30 12:03 44.66443 25.52097 5940 ft 258 kts 115°
2026-04-30 12:03 44.64746 25.56482 5292 ft 252 kts 115°
2026-04-30 12:03 44.63911 25.58643 4966 ft 251 kts 115°
2026-04-30 12:04 44.63084 25.60780 4668 ft 248 kts 115°
2026-04-30 12:04 44.62265 25.62893 4359 ft 245 kts 114°
2026-04-30 12:04 44.61455 25.64985 4010 ft 243 kts 114°
2026-04-30 12:04 44.60647 25.67071 3653 ft 243 kts 114°
2026-04-30 12:05 44.59842 25.69143 3323 ft 241 kts 114°
2026-04-30 12:05 44.59050 25.71168 3153 ft 231 kts 114°
2026-04-30 12:05 44.58294 25.73093 3017 ft 220 kts 114°
2026-04-30 12:05 44.57574 25.74924 2887 ft 209 kts 113°
2026-04-30 12:06 44.56892 25.76660 2711 ft 199 kts 112°
2026-04-30 12:06 44.56233 25.78351 2541 ft 197 kts 112°
2026-04-30 12:06 44.55588 25.80002 2536 ft 183 kts 112°
2026-04-30 12:06 44.55021 25.81436 2513 ft 155 kts 111°
2026-04-30 12:07 44.54722 25.82554 2523 ft 134 kts 97°
2026-04-30 12:07 44.54627 25.83791 2510 ft 124 kts 84°
2026-04-30 12:07 44.54708 25.84965 2511 ft 122 kts 79°
2026-04-30 12:07 44.54802 25.86150 2510 ft 122 kts 79°
2026-04-30 12:08 44.54895 25.87343 2505 ft 123 kts 79°
2026-04-30 12:08 44.54988 25.88529 2508 ft 123 kts 79°
2026-04-30 12:08 44.55080 25.89718 2509 ft 123 kts 79°
2026-04-30 12:08 44.55173 25.90907 2478 ft 122 kts 79°
2026-04-30 12:09 44.55265 25.92092 2377 ft 122 kts 78°
2026-04-30 12:09 44.55357 25.93274 2261 ft 122 kts 78°
2026-04-30 12:09 44.55449 25.94460 2112 ft 122 kts 79°
2026-04-30 12:09 44.55540 25.95639 1965 ft 122 kts 79°
2026-04-30 12:10 44.55631 25.96817 1813 ft 121 kts 79°
2026-04-30 12:10 44.55722 25.97991 1658 ft 121 kts 78°
2026-04-30 12:10 44.55813 25.99166 1506 ft 121 kts 78°
2026-04-30 12:10 44.55903 26.00339 1345 ft 120 kts 78°
2026-04-30 12:11 44.55993 26.01507 1179 ft 121 kts 77°
2026-04-30 12:11 44.56083 26.02679 1020 ft 121 kts 77°
2026-04-30 12:11 44.56173 26.03855 854 ft 122 kts 78°
2026-04-30 12:11 44.56258 26.04960 707 ft 123 kts 78°
2026-04-30 12:12 44.56342 26.06159 578 ft 124 kts 79°
2026-04-30 12:12 44.56437 26.07350 407 ft 123 kts 76°
2026-04-30 12:12 44.56526 26.08494 326 ft 105 kts 82°
2026-04-30 12:12 44.56586 26.09278 319 ft 56 kts 84°
2026-04-30 12:13 44.56622 26.09721 321 ft 41 kts 85°
2026-04-30 12:13 44.56647 26.10078 322 ft 33 kts 83°
2026-04-30 12:13 44.56661 26.10283 323 ft 31 kts 84°
2026-04-30 12:13 44.56683 26.10557 322 ft 26 kts 84°
2026-04-30 12:14 44.56717 26.10763 321 ft 12 kts 45°
2026-04-30 12:14 44.56779 26.10766 320 ft 9 kts 353°
2026-04-30 12:14 44.56838 26.10755 322 ft 8 kts 352°
2026-04-30 12:14 44.56894 26.10745 322 ft 8 kts 352°
2026-04-30 12:15 44.56957 26.10734 323 ft 10 kts 352°
2026-04-30 12:15 44.57016 26.10678 323 ft 11 kts 309°
2026-04-30 12:15 44.57056 26.10573 323 ft 13 kts 292°
2026-04-30 12:15 44.57062 26.10437 321 ft 15 kts 264°
2026-04-30 12:16 44.57050 26.10284 323 ft 17 kts 263°
2026-04-30 12:16 44.57037 26.10114 323 ft 18 kts 264°
2026-04-30 12:16 44.57022 26.09930 323 ft 20 kts 264°
2026-04-30 12:16 44.57007 26.09732 323 ft 21 kts 264°
2026-04-30 12:17 44.56978 26.09343 323 ft 19 kts 264°
2026-04-30 12:17 44.56964 26.09163 323 ft 18 kts 264°
2026-04-30 12:17 44.56951 26.08993 323 ft 17 kts 263°
2026-04-30 12:18 44.56938 26.08833 323 ft 16 kts 263°
2026-04-30 12:18 44.56924 26.08743 323 ft 1 kts 214°
2026-04-30 12:18 44.56912 26.08743 323 ft 2 kts 181°
2026-04-30 12:18 44.56898 26.08745 323 ft 2 kts 176°
2026-04-30 12:19 44.56885 26.08746 321 ft 2 kts 174°
2026-04-30 12:19 44.56878 26.08747 322 ft 0 kts 174°